Wind_Speed
12 12 12 12 12 11 11 11 10 11 11 11 11 11 11 11 11 11 11 11 11 11 11 11 11 10 10 9 9 9 11 12 13 10 10 15 15 14 8 9 15 17 20 21 22 18 12 9 9 10 8 3 1 1 4 3 1 1 0 1 2 3 3 3 2 2 2 5 8 5 2 6 6 2 3 5 6 5 6 6 6 7 9 12 18 25 25 23
13 12 13 12 12 12 12 11 11 11 11 11 11 11 12 11 12 12 12 12 11 11 11 11 11 10 10 9 8 9 11 13 12 12 19 17 8 11 13 10 15 21 23 23 24 21 13 8 9 9 5 2 2 2 4 3 3 2 0 1 3 2 1 1 2 3 3 5 8 6 2 4 5 4 3 4 5 5 7 6 7 10 11 15 20 23 23 23
13 13 13 13 13 13 13 13 12 11 11 11 11 11 12 11 11 11 11 11 11 11 11 11 10 9 9 8 7 8 10 10 7 11 17 15 12 12 14 14 16 23 25 23 23 21 16 13 14 10 4 2 2 3 3 3 3 2 1 1 3 2 1 1 2 3 4 6 9 6 2 4 3 2 2 6 7 5 6 6 7 10 12 13 15 19 21 21
14 14 14 13 13 13 13 13 13 12 12 11 11 11 11 11 11 11 11 11 11 11 11 11 10 9 8 7 6 7 8 5 3 6 5 6 13 15 16 18 18 24 24 21 19 15 15 16 13 7 4 1 1 2 3 3 3 2 3 3 3 1 1 2 4 5 6 6 8 6 5 5 2 2 3 9 9 3 5 7 8 12 15 14 13 16 19 18
14 15 15 14 14 13 13 13 13 13 12 12 12 11 11 11 11 10 10 10 11 10 11 10 9 9 7 5 5 6 5 1 3 3 2 2 9 17 20 21 21 23 20 20 18 13 14 15 9 4 3 1 1 2 3 5 4 2 3 3 3 3 1 2 4 6 7 5 6 6 6 5 2 3 4 9 7 3 5 7 10 13 15 16 14 15 16 16
15 15 15 15 14 14 13 13 13 13 13 13 12 12 11 11 10 10 9 10 11 10 10 9 9 8 5 4 3 3 1 1 6 3 1 3 10 21 23 23 24 22 19 20 18 11 11 11 6 4 3 1 3 4 3 5 5 2 2 2 3 3 4 4 5 7 6 5 5 4 4 4 5 5 3 4 3 3 4 7 10 11 14 18 16 14 13 12
16 15 15 15 14 14 14 14 14 13 13 12 12 12 11 11 10 9 9 10 10 10 10 9 9 6 3 2 1 2 2 5 9 4 3 1 15 24 25 24 25 24 18 18 15 8 7 9 6 5 4 2 3 5 4 3 6 4 2 1 1 3 4 6 7 8 7 6 3 3 3 4 6 5 3 3 3 6 7 8 11 12 15 18 13 11 12 12
16 15 15 15 14 14 14 14 14 13 13 12 12 12 11 10 9 9 9 10 10 10 9 8 8 4 1 1 1 3 1 6 7 3 4 4 21 25 26 24 23 25 19 16 14 8 6 9 8 4 4 3 3 4 4 2 4 5 3 1 4 4 4 5 7 9 8 6 4 6 7 5 4 2 2 2 5 9 10 10 11 12 13 13 11 11 11 11
17 16 15 15 15 15 15 15 14 14 13 13 12 12 11 10 8 8 8 10 10 9 8 7 6 1 1 1 0 2 3 5 6 3 2 10 25 25 25 21 20 24 19 15 13 10 6 6 7 5 4 4 2 2 3 3 4 5 4 4 5 5 4 4 6 8 6 4 6 9 8 2 2 2 3 2 7 11 11 12 11 12 11 10 9 10 10 10
17 17 16 16 16 16 15 15 15 14 14 13 12 12 11 9 7 7 8 9 9 8 7 5 3 1 2 1 2 1 4 6 6 1 4 15 26 25 23 20 20 23 19 14 13 9 5 4 4 4 3 1 1 3 4 4 3 6 8 7 8 6 4 4 5 6 5 3 5 8 7 3 1 2 4 2 8 13 12 13 11 11 10 9 8 9 11 11
18 17 16 16 16 16 16 16 15 14 14 13 12 11 10 8 6 6 7 8 7 6 5 3 1 3 2 1 4 3 4 7 5 3 7 17 25 26 24 21 21 23 19 12 11 10 5 5 4 3 2 1 2 4 3 3 6 11 12 10 9 7 6 6 6 5 4 3 3 9 8 3 1 2 2 4 9 13 14 13 11 10 9 9 9 8 9 10
18 18 17 17 17 17 17 16 16 14 14 13 12 10 7 6 5 6 6 5 5 3 2 1 4 6 3 2 4 9 4 8 7 4 10 18 22 24 23 22 23 23 20 12 10 13 8 4 4 3 1 1 2 3 2 4 8 9 8 9 8 7 5 4 6 2 1 2 4 9 8 1 1 2 0 6 10 13 14 13 11 10 8 8 8 7 6 9
20 19 18 18 18 18 18 17 16 15 13 12 11 8 5 6 5 4 4 2 2 1 1 3 6 6 3 1 6 8 7 8 7 2 13 19 17 17 17 19 20 19 19 14 12 16 12 2 4 2 1 2 2 2 1 3 5 5 5 6 6 5 1 1 3 1 1 4 4 4 4 4 2 1 0 6 11 13 13 12 11 9 7 7 7 6 6 8
21 20 19 19 19 19 18 17 16 15 13 12 10 6 4 4 3 2 1 1 0 1 3 5 7 4 2 5 7 5 5 5 6 3 12 17 13 10 11 14 16 14 13 9 8 14 16 7 3 2 2 1 2 3 1 3 2 4 4 3 3 2 2 1 2 2 1 3 3 1 3 4 4 3 1 5 11 14 14 12 11 9 7 7 6 7 6 7
23 21 20 19 20 19 19 17 15 15 13 12 9 5 4 2 1 1 3 3 2 4 6 7 5 3 2 7 7 3 2 2 7 8 10 15 12 8 9 12 13 12 10 6 6 8 13 8 1 0 3 1 1 1 2 2 2 3 4 2 1 1 3 3 4 5 3 2 3 2 2 3 4 6 3 5 10 13 14 12 11 10 8 7 6 7 6 6
24 23 21 20 20 19 18 17 16 14 13 11 7 4 2 3 3 3 4 5 5 8 9 6 2 2 1 5 3 1 2 3 5 7 10 14 12 8 10 12 11 10 8 6 4 3 7 5 1 2 2 1 3 4 3 3 2 2 2 3 2 3 4 3 4 5 3 4 1 3 2 3 4 5 4 8 11 10 13 12 11 11 9 8 7 6 6 5
25 24 23 21 20 19 18 18 16 14 12 8 4 1 3 4 5 5 5 6 8 11 8 3 1 2 2 5 3 2 3 3 4 5 11 14 10 9 13 10 6 8 5 4 4 2 3 2 1 1 0 1 3 5 4 1 2 1 2 3 2 4 4 3 5 5 4 6 3 2 3 3 4 6 5 10 11 9 12 12 12 11 9 8 7 6 7 6
26 25 24 22 20 19 19 18 16 15 10 5 2 3 5 6 6 6 7 9 9 7 3 1 1 1 2 4 3 4 7 6 4 3 12 13 8 11 14 7 5 9 6 2 2 2 1 1 1 0 1 2 3 5 4 3 4 3 2 3 2 3 3 4 5 6 8 7 3 3 4 3 5 6 6 10 11 10 11 11 11 10 10 9 8 7 7 7
26 25 24 22 20 19 19 17 16 13 7 4 6 8 8 7 6 5 6 7 5 2 2 2 2 1 1 4 5 8 12 9 4 4 13 13 9 10 10 8 8 9 5 3 1 2 2 1 2 2 2 2 4 5 5 5 4 5 4 3 4 3 1 3 4 6 9 7 4 5 4 4 6 7 8 8 9 9 10 10 9 9 10 9 8 7 7 8
26 25 24 23 20 19 18 16 16 11 5 3 8 9 6 4 3 1 0 2 4 4 3 4 5 1 3 5 6 9 11 5 2 5 14 15 11 10 5 4 5 5 5 6 2 2 4 3 2 3 5 5 6 7 6 4 4 6 5 4 5 4 1 2 4 7 7 4 6 5 4 6 6 8 9 5 5 9 10 10 9 8 9 9 9 9 8 9
26 25 24 23 20 19 17 16 15 9 5 3 8 5 2 1 1 2 2 3 6 7 7 5 5 4 7 7 6 5 5 2 1 3 13 15 12 9 1 2 5 3 3 5 2 1 3 4 5 5 8 7 6 6 5 4 4 4 5 5 5 4 3 2 5 10 5 1 5 5 5 7 7 8 7 4 4 8 7 8 10 10 10 9 10 10 9 8
26 25 24 23 20 18 17 16 14 7 5 3 4 3 1 2 1 2 1 3 7 6 8 5 1 6 9 10 10 3 2 1 3 1 11 12 8 5 1 4 6 3 2 3 2 1 1 4 7 6 6 4 3 4 5 5 4 4 3 5 4 3 4 3 4 7 2 2 4 7 6 6 7 7 5 4 3 4 2 2 6 9 11 9 10 10 9 7
26 25 23 21 20 18 15 16 13 5 5 5 2 3 3 4 5 5 1 2 6 3 3 3 3 5 5 6 8 6 3 3 1 1 9 11 4 4 4 5 6 4 3 3 3 3 2 4 5 5 6 5 3 4 5 5 3 3 3 3 3 5 4 2 3 5 5 2 3 7 6 4 6 6 4 2 1 1 2 2 3 5 9 10 11 9 9 9
26 24 22 21 20 16 15 16 9 3 8 8 3 1 9 11 5 5 1 1 4 4 3 5 5 5 3 2 7 9 3 4 3 1 9 11 3 2 4 4 5 4 2 5 6 5 4 4 3 5 5 6 4 3 5 5 1 2 4 4 3 7 4 3 7 7 5 2 3 6 5 3 6 6 5 4 2 1 1 2 3 3 5 7 8 7 8 9
26 24 21 20 18 15 15 11 2 5 12 7 3 7 15 15 3 5 2 3 3 5 3 3 2 3 3 3 7 7 2 2 4 3 9 11 5 3 2 2 4 3 3 5 6 3 5 5 4 6 3 4 5 3 4 5 3 3 3 6 7 9 5 9 13 8 3 1 3 6 4 2 6 9 8 5 5 4 2 0 2 4 4 5 6 7 6 7
26 24 20 18 17 15 11 4 2 10 11 3 5 12 17 15 4 6 3 4 2 5 2 1 1 2 3 3 4 3 3 1 5 5 8 10 8 5 2 1 2 3 5 4 3 2 3 2 5 6 4 4 4 3 4 5 4 2 5 7 9 9 9 13 14 8 2 2 4 5 2 1 3 8 9 7 7 7 4 4 5 4 4 5 7 7 6 7
27 24 19 16 15 14 7 2 6 9 3 2 9 13 16 14 3 5 3 4 2 3 0 1 1 2 2 3 4 4 2 3 2 4 5 9 7 3 3 3 1 2 3 3 1 2 2 1 4 5 5 4 3 3 5 6 6 3 4 7 11 10 11 13 12 6 2 3 3 3 1 2 1 4 8 8 7 7 7 8 7 5 4 5 7 7 7 9
27 23 18 14 13 12 7 5 7 4 1 6 10 12 16 9 3 4 4 2 2 2 1 2 2 1 1 2 5 4 2 3 3 1 1 6 4 4 4 5 5 4 2 5 3 4 2 2 3 5 4 3 5 5 6 7 5 4 2 7 10 9 9 9 7 4 3 4 3 5 3 2 1 1 6 9 9 9 10 10 10 8 6 5 5 6 8 9
27 21 16 13 11 10 7 6 5 2 3 8 9 13 13 4 4 4 4 2 1 2 2 1 1 2 2 2 2 2 1 2 2 2 1 4 1 4 4 5 6 5 1 4 5 5 2 4 6 6 5 5 6 6 8 8 4 2 6 10 8 8 7 4 3 3 4 2 3 8 6 2 1 2 5 8 10 11 11 9 9 8 6 5 5 4 6 8
25 18 14 12 10 6 4 6 6 2 5 7 9 12 8 2 4 4 2 1 1 1 1 1 1 1 3 4 1 4 2 2 1 1 2 2 2 5 3 3 5 5 0 2 2 5 4 3 4 4 5 7 6 6 7 8 7 4 10 12 10 8 7 5 3 3 4 2 3 10 9 2 1 3 4 6 5 8 9 8 7 7 5 5 4 3 4 6
22 16 14 12 8 4 2 4 4 2 6 8 9 9 4 2 4 4 1 1 1 2 2 1 2 2 4 4 1 2 1 1 2 3 3 1 3 5 3 2 3 2 3 4 2 4 5 2 2 4 5 6 5 2 1 5 7 6 6 6 7 4 4 4 3 3 3 3 3 8 8 3 0 3 3 4 2 2 7 9 11 10 7 5 4 3 3 4
19 15 13 10 8 7 6 4 5 6 8 6 5 4 3 2 2 2 1 2 1 2 2 2 1 3 3 3 2 1 1 0 1 3 4 3 3 2 1 2 3 1 3 2 2 4 3 3 4 4 3 6 6 3 2 3 4 5 5 5 6 2 2 3 1 1 2 3 3 6 8 2 2 3 2 4 5 3 6 9 11 12 10 7 5 4 3 3
17 13 10 8 8 10 9 7 8 8 6 2 2 4 5 4 1 1 2 2 1 3 2 1 1 3 4 3 0 2 2 1 1 2 2 3 3 3 3 2 5 3 1 3 1 2 3 5 3 2 2 4 8 5 2 3 3 6 7 5 5 3 2 2 1 1 2 4 3 4 6 1 3 1 1 4 4 3 5 8 10 12 10 7 5 5 3 2
15 10 7 6 8 8 7 7 7 5 2 1 3 4 5 3 1 2 2 3 3 2 1 1 2 4 3 2 2 2 2 0 0 3 3 3 3 1 3 2 3 4 2 2 1 1 3 4 4 5 3 4 8 7 7 7 6 6 5 5 5 5 4 3 4 3 2 1 2 3 3 2 1 0 3 2 1 2 2 4 9 10 7 6 5 4 3 1
13 8 7 7 7 6 3 5 6 4 2 3 5 4 4 1 3 2 2 4 2 2 3 2 4 5 3 1 2 0 3 0 2 4 3 2 3 2 2 3 2 3 4 2 2 2 3 5 7 4 2 6 8 6 7 9 6 4 2 5 4 5 5 4 2 3 3 3 2 1 1 2 1 1 3 2 4 3 2 4 9 10 7 7 5 4 4 2
10 6 6 6 6 4 1 3 7 6 2 4 5 4 2 2 3 2 3 3 2 1 2 4 5 5 3 3 4 4 2 2 2 4 3 2 1 1 1 3 3 4 4 3 3 1 1 4 6 3 1 6 9 7 7 8 5 2 2 3 2 2 7 5 1 1 3 3 1 0 1 1 1 2 2 4 6 5 3 4 8 10 8 8 7 5 4 3
10 6 4 5 6 2 1 3 7 5 3 5 5 1 2 3 3 4 3 3 2 2 4 3 2 2 1 1 3 4 3 3 3 3 2 1 1 1 2 4 3 3 4 4 3 2 2 4 6 2 3 6 5 7 5 4 6 5 4 5 2 3 4 4 3 2 3 2 0 1 2 2 1 1 2 5 7 5 4 3 7 8 8 8 6 6 5 4
11 6 2 4 7 0 6 6 6 5 4 5 3 1 1 1 2 4 2 2 1 3 5 3 0 1 2 2 2 4 2 2 2 2 2 1 1 0 1 3 3 2 2 3 2 1 2 2 7 4 4 3 1 7 4 1 2 4 5 6 5 3 1 1 3 2 2 2 2 1 3 2 3 2 2 5 7 5 4 3 5 7 8 7 6 6 6 5
8 3 1 7 8 3 10 8 5 5 5 4 2 1 1 2 4 4 2 0 2 3 4 2 1 2 2 3 1 2 2 2 1 2 2 1 0 1 1 0 3 3 1 4 4 1 2 1 5 5 2 1 3 3 4 1 3 4 5 5 3 2 4 3 2 3 4 3 2 1 2 3 3 2 2 6 7 6 5 3 3 5 6 6 5 6 6 5
4 3 2 9 6 9 11 6 4 5 4 1 1 2 1 3 5 5 3 1 2 2 1 1 1 3 2 1 1 1 2 2 2 2 2 1 0 1 1 1 2 4 2 4 3 1 2 2 3 5 3 1 1 2 6 7 4 4 5 4 1 2 3 3 2 1 3 4 3 2 1 4 2 2 2 6 7 6 6 4 2 2 4 5 5 5 5 5
3 3 3 7 6 12 6 4 3 3 1 1 1 3 2 1 3 6 5 2 2 1 2 3 3 3 3 1 1 0 2 3 2 2 1 1 1 0 2 1 2 3 2 5 3 1 1 2 2 3 2 2 4 3 5 7 7 6 6 6 4 3 4 4 1 2 2 4 4 4 2 3 1 2 1 5 6 6 7 5 5 4 3 3 4 5 5 5
4 2 3 3 9 8 3 4 1 1 1 1 1 2 2 1 1 4 5 4 4 2 3 3 3 2 2 1 1 1 3 3 2 2 1 1 3 3 2 2 2 2 2 1 2 2 2 3 2 3 2 5 6 5 2 4 5 5 4 4 5 4 5 6 4 2 2 3 2 3 1 2 2 2 1 6 7 6 6 6 6 7 6 5 4 4 5 4
3 0 1 5 10 4 5 3 3 3 1 4 2 2 2 1 1 3 3 4 3 2 4 3 1 2 1 1 1 2 3 2 2 1 1 1 2 4 4 6 4 2 4 1 2 1 0 3 2 2 3 4 6 4 2 2 4 4 2 2 4 4 3 5 6 4 4 3 2 3 1 2 1 1 2 6 7 7 7 6 7 7 7 7 7 5 5 5
2 2 2 2 7 4 3 0 2 2 3 4 4 4 3 1 2 3 3 4 3 2 3 2 1 2 1 1 2 2 2 2 1 1 1 1 1 1 2 6 5 2 2 1 1 1 0 2 2 2 2 4 3 2 3 3 2 3 1 1 2 5 7 6 3 4 3 4 4 4 2 2 2 2 4 6 6 7 8 8 8 7 7 6 6 5 4 3
1 1 2 3 0 3 3 3 4 1 4 3 4 5 4 2 2 2 1 2 2 2 3 1 1 2 2 3 4 3 2 3 2 1 1 0 1 1 3 6 4 3 2 3 1 1 2 2 2 4 4 3 4 3 3 2 0 1 2 1 1 6 9 6 4 4 2 4 4 4 3 3 5 6 7 7 6 7 9 9 9 8 7 6 4 4 5 4
2 1 2 5 4 4 1 1 4 1 3 2 2 3 3 3 3 1 2 2 3 3 3 1 1 3 5 5 5 5 5 3 2 2 2 1 2 2 3 5 4 5 6 4 3 3 4 3 1 5 6 5 6 6 5 2 3 1 3 2 1 3 6 7 5 3 4 5 2 3 5 8 9 9 9 8 7 8 9 9 9 8 7 6 4 5 6 6
3 1 1 2 3 3 2 3 4 1 2 2 1 2 3 3 3 3 3 2 2 3 3 2 3 4 5 5 4 3 5 5 4 4 1 2 3 3 4 4 4 9 9 4 4 3 4 3 2 3 4 1 4 6 5 1 4 3 4 3 1 1 4 7 5 5 8 8 2 5 7 12 12 11 11 10 8 7 8 9 9 8 7 6 5 6 8 8
2 1 1 2 1 1 1 3 3 3 0 2 3 1 3 4 4 3 3 2 3 4 3 3 6 5 4 5 4 2 5 5 5 3 2 2 3 4 6 4 4 8 7 4 4 3 5 2 4 1 5 5 4 5 3 3 4 4 5 4 1 1 3 6 4 4 7 6 4 8 12 11 10 12 12 11 9 7 7 8 9 9 8 7 7 8 9 9
2 1 1 1 1 3 2 3 2 3 2 2 3 2 1 3 4 1 2 3 4 5 3 3 5 6 1 6 6 3 3 3 3 3 2 2 3 3 4 4 5 6 6 4 4 3 4 2 4 0 4 8 9 9 6 5 7 7 8 7 5 4 4 6 5 4 6 4 6 13 13 7 8 11 11 9 7 6 7 8 9 9 8 8 7 8 10 8
2 1 1 2 2 2 2 3 2 3 3 3 3 2 2 4 3 1 2 4 2 5 4 4 2 4 2 6 8 3 1 4 2 2 1 1 3 2 1 1 3 5 7 4 3 3 3 2 5 1 4 6 8 10 9 4 9 11 9 9 8 7 6 6 5 6 7 6 8 14 12 6 5 9 9 8 8 7 8 9 9 8 8 8 9 8 8 8
1 1 1 3 2 3 2 3 3 4 3 3 2 1 1 2 1 2 3 2 2 1 2 4 2 4 5 7 8 2 2 5 5 4 4 3 1 1 1 1 2 2 6 3 3 4 3 1 4 4 5 4 7 9 10 7 7 11 9 9 8 5 3 2 1 2 5 10 12 11 8 6 6 9 10 9 9 9 10 10 9 8 8 9 9 8 7 7
3 1 2 3 0 3 2 2 3 4 1 1 1 1 0 2 1 3 3 2 3 3 2 5 3 3 5 6 4 0 4 4 5 4 2 3 2 3 2 2 3 3 2 2 2 2 2 3 1 3 4 3 7 8 7 6 6 6 4 4 3 1 2 1 3 3 6 12 11 6 5 7 10 12 12 10 10 10 9 8 8 8 9 9 9 8 8 7
Wind_Direction
347 345 343 341 340 339 338 336 333 331 329 326 323 321 319 318 317 317 316 315 316 316 318 319 318 321 323 324 321 315 319 312 307 302 253 251 248 229 218 184 178 165 158 164 160 145 135 144 151 146 138 139 163 131 165 194 174 121 205 229 256 262 280 339 63 99 99 124 131 150 168 112 119 96 97 91 71 87 85 70 75 66 79 100 117 130 136 137
346 344 341 339 337 335 334 331 329 328 325 322 320 318 317 316 315 315 315 315 315 315 319 319 318 323 324 327 323 320 326 316 310 288 252 247 250 220 208 180 175 174 165 164 160 148 139 154 155 142 125 127 187 153 159 181 157 167 215 249 255 259 280 341 55 65 88 133 132 133 96 88 125 129 118 115 99 95 89 88 97 90 95 107 121 133 136 134
345 343 340 338 336 334 332 329 327 326 322 319 316 315 314 312 312 312 314 314 313 316 318 318 320 325 327 326 323 325 324 324 312 271 259 248 232 218 190 169 176 178 173 170 165 157 155 157 149 137 117 121 175 162 171 185 166 186 166 283 259 261 311 90 83 78 106 140 129 123 94 77 103 101 105 124 112 100 113 129 121 117 124 124 131 138 137 134
344 341 339 336 335 333 332 329 327 324 320 317 314 312 310 310 310 310 314 312 313 315 314 317 322 325 328 323 321 327 323 327 295 246 250 246 218 208 184 167 174 178 176 175 168 163 155 146 142 133 112 124 219 159 180 198 176 172 171 234 237 169 8 100 103 103 113 130 123 121 110 102 99 54 111 133 121 118 156 162 151 143 140 136 141 143 140 137
343 340 338 336 334 332 330 328 326 322 319 317 314 312 309 308 307 309 313 311 313 313 314 318 322 325 324 324 324 327 336 37 299 252 130 298 203 190 178 166 172 173 169 170 164 151 144 143 142 122 104 135 173 149 213 204 178 177 208 230 209 153 129 118 110 114 115 105 104 119 122 129 114 63 126 145 140 165 175 165 153 149 145 141 144 143 142 140
342 340 338 336 334 332 331 328 325 322 320 318 315 312 309 307 307 311 311 311 314 312 316 319 321 323 317 329 333 332 23 182 301 298 43 336 178 174 168 164 170 164 153 161 161 147 141 146 148 129 115 121 180 199 238 206 181 204 261 239 205 168 135 130 115 111 113 102 99 117 118 110 95 83 118 136 137 139 134 142 142 143 142 140 141 142 144 145
341 339 338 336 334 335 336 332 327 323 320 318 315 313 311 308 308 311 312 313 313 312 316 318 320 317 322 356 334 34 96 251 294 289 322 354 164 165 160 162 169 161 149 154 158 157 151 149 154 133 122 146 201 215 244 217 190 198 260 275 118 89 105 125 124 116 108 103 105 101 81 68 84 105 110 71 108 118 113 124 130 136 140 139 139 143 146 148
343 340 337 335 334 336 338 335 331 327 321 316 314 312 311 311 310 312 314 312 311 313 313 311 317 307 338 42 179 9 303 256 297 285 301 168 159 159 156 158 169 169 160 158 162 164 153 145 157 136 129 197 192 210 226 193 201 201 202 110 80 66 86 113 120 118 109 106 111 84 69 44 33 76 101 73 124 121 119 126 128 136 142 143 142 144 148 149
344 341 338 336 336 338 336 334 332 328 323 317 313 311 311 313 315 311 308 310 309 309 310 306 312 307 113 29 123 336 267 276 319 291 275 166 160 160 162 161 170 175 167 166 170 166 165 153 163 151 155 205 181 235 223 168 217 192 143 100 97 89 92 101 105 111 105 105 113 88 81 96 345 27 68 72 137 128 125 131 134 143 149 151 146 148 152 152
345 342 339 337 338 338 336 334 332 328 323 318 315 312 312 314 314 309 305 310 308 304 307 301 300 128 145 318 96 234 276 326 331 249 159 167 164 163 170 170 171 175 168 170 176 169 171 167 163 132 119 179 199 266 236 185 194 128 106 90 102 106 94 92 95 101 91 80 114 109 112 144 325 49 88 122 144 131 128 135 143 150 154 156 148 152 157 158
346 343 340 337 338 338 338 336 333 329 324 319 317 315 314 313 308 305 306 307 306 304 303 288 231 150 166 65 119 211 300 0 10 122 159 171 169 171 177 179 176 175 168 164 182 181 161 153 143 97 85 280 253 285 273 158 121 113 108 96 99 105 102 99 101 106 88 54 106 111 104 110 24 44 124 163 151 135 135 142 149 155 158 159 151 153 160 163
346 345 341 339 340 340 340 337 333 331 328 321 319 321 315 308 302 299 304 304 304 307 306 261 158 150 133 49 205 226 281 359 12 86 163 172 173 179 182 183 183 181 174 162 182 189 171 129 97 96 176 290 298 310 332 119 117 117 106 103 108 101 102 102 98 83 23 81 149 113 95 153 142 17 123 158 153 139 139 146 152 159 160 160 155 155 166 168
348 346 343 341 343 343 341 337 334 333 333 327 323 323 307 296 297 296 299 294 295 303 109 136 150 138 104 240 246 249 278 305 323 62 164 174 175 179 184 186 184 184 180 174 184 190 191 176 57 76 235 5 318 275 134 104 112 112 80 101 124 113 110 84 91 324 15 121 183 126 116 215 178 37 101 153 154 142 142 152 155 160 162 162 162 162 172 172
351 348 345 343 345 346 342 339 337 337 338 334 327 315 291 282 282 280 252 189 123 142 143 139 144 115 90 250 270 305 306 271 260 214 168 177 174 168 183 186 183 181 176 167 170 189 203 224 0 9 279 194 246 276 79 63 69 103 88 88 113 144 188 146 131 211 122 128 266 334 154 202 175 173 185 156 160 149 148 158 158 160 165 165 169 172 179 179
352 349 347 345 347 347 344 341 339 342 342 337 330 304 273 246 213 186 146 121 111 144 144 138 144 104 27 279 278 314 314 227 230 223 188 185 176 161 180 181 182 183 175 158 136 170 198 213 303 331 271 235 157 1 55 38 20 91 114 117 62 150 168 142 166 195 176 148 289 323 142 163 170 178 171 160 168 157 153 160 161 163 167 169 175 179 184 185
353 351 350 348 348 347 344 342 342 347 345 340 331 293 233 154 130 122 118 98 109 131 130 131 144 113 59 285 290 329 264 233 241 227 203 198 186 165 160 159 171 180 183 188 162 144 171 180 167 174 254 326 112 114 89 42 10 24 97 143 160 149 156 147 168 215 221 141 212 287 141 119 169 181 157 161 172 162 156 161 164 166 169 172 179 184 186 189
353 351 351 350 349 347 344 342 344 352 350 346 336 235 136 133 127 107 104 103 121 132 124 115 93 90 270 282 307 330 286 270 276 224 196 198 195 166 144 134 147 156 162 194 192 163 132 155 195 202 352 84 131 121 96 86 219 270 73 118 158 143 149 153 160 213 205 152 177 232 148 123 157 165 149 161 170 164 161 165 167 168 171 175 182 187 190 192
352 350 350 350 349 346 345 342 345 358 1 7 46 130 118 121 122 108 111 113 122 133 118 39 75 73 269 291 314 302 308 310 298 202 176 181 187 167 148 131 127 130 128 148 163 160 114 344 95 111 327 101 135 125 125 200 189 169 144 109 117 132 152 169 162 179 173 161 167 153 147 124 138 147 141 158 171 172 170 168 168 172 172 177 184 186 192 196
350 349 348 348 348 345 344 342 346 1 16 47 94 121 119 112 108 108 113 111 121 162 284 240 176 64 260 268 293 300 309 308 273 179 161 162 165 162 145 129 131 123 130 141 126 169 145 49 78 125 225 175 159 161 169 196 165 145 145 106 121 124 149 180 156 159 160 153 157 158 154 141 141 153 150 154 175 181 176 168 169 176 175 179 184 187 192 196
349 348 346 345 345 344 342 342 347 1 30 99 130 124 115 96 65 20 111 162 203 231 269 214 186 253 291 266 295 318 319 302 218 163 159 160 152 152 139 123 122 93 127 143 149 191 137 163 204 177 198 198 186 183 167 154 128 132 132 117 131 124 124 180 145 155 161 150 161 155 137 149 151 159 155 129 162 185 182 175 175 180 181 182 184 187 190 197
348 346 345 343 342 342 341 340 345 357 30 127 163 142 133 156 45 310 272 253 240 229 241 228 183 238 268 265 290 337 353 330 332 124 158 162 145 142 160 122 121 101 136 139 134 110 122 177 219 204 200 201 184 171 143 101 85 110 135 142 139 131 134 148 154 162 169 119 152 142 128 156 162 159 151 92 143 183 184 181 182 183 186 186 187 188 189 197
347 345 343 341 339 341 338 338 343 344 15 56 169 176 249 220 202 247 284 300 277 230 222 237 241 263 262 263 264 259 56 338 329 67 157 157 144 153 114 86 125 136 100 97 94 51 114 213 230 214 195 178 117 113 118 111 95 87 112 137 135 130 114 108 143 141 112 20 145 149 141 161 162 146 124 88 140 167 136 217 202 188 187 189 191 188 187 192
345 343 341 339 336 339 335 335 340 335 351 359 217 203 325 324 282 269 316 314 291 276 195 201 214 244 263 269 234 175 118 190 207 289 171 156 157 175 120 86 120 124 91 117 145 142 174 237 229 191 161 140 100 93 111 108 95 94 119 132 149 170 152 133 135 87 47 9 145 147 139 156 152 118 111 153 254 141 115 315 282 203 194 194 194 189 185 185
343 341 339 335 333 336 334 333 339 352 338 328 275 301 353 347 304 245 221 72 302 299 216 192 193 204 241 262 169 150 133 183 172 273 173 153 133 157 135 113 115 115 156 157 149 162 218 242 164 130 137 143 129 125 133 129 203 240 169 157 155 181 183 103 129 111 71 50 112 135 130 177 169 150 166 187 222 199 133 336 311 246 216 195 192 195 191 186
342 339 336 333 330 332 335 333 354 357 336 320 309 348 351 353 15 159 129 46 327 296 258 191 210 214 209 146 156 165 121 178 209 201 167 156 144 129 137 130 113 157 192 146 136 176 253 241 143 109 104 128 131 161 183 165 193 285 226 192 169 171 149 111 131 135 111 143 182 166 155 215 187 173 177 172 185 191 137 54 272 254 224 187 188 199 197 192
340 337 334 330 325 331 340 339 3 343 333 311 342 346 346 350 32 138 95 42 344 297 307 159 233 214 193 140 161 164 89 264 233 164 156 167 159 122 126 161 67 175 180 143 145 188 263 243 136 128 120 121 139 201 229 172 147 279 243 191 163 156 138 133 146 151 144 176 192 194 175 191 199 187 184 173 184 191 168 187 222 240 224 195 195 197 187 190
339 335 332 327 323 331 339 296 319 335 332 312 336 342 342 347 51 133 64 39 337 298 220 277 265 135 182 181 153 122 131 254 216 128 156 174 168 77 116 177 93 168 175 124 176 236 206 95 95 124 114 116 162 222 232 166 142 242 245 159 147 153 151 152 156 154 137 103 131 200 162 90 246 200 178 170 186 204 197 199 209 220 225 209 203 197 184 187
338 334 329 323 321 323 315 293 310 318 239 316 330 338 338 342 127 117 64 74 313 298 179 270 265 166 301 171 133 112 200 216 137 188 204 151 154 55 103 190 169 175 184 129 199 262 196 169 170 150 125 155 199 213 202 173 170 250 202 137 145 150 149 153 146 127 120 101 137 204 174 102 278 194 152 166 190 213 210 204 206 207 213 208 202 200 190 188
337 335 325 319 317 312 302 289 289 270 297 322 333 332 330 340 119 75 64 100 334 298 235 299 293 292 342 116 128 20 4 73 126 241 45 109 97 58 132 194 152 158 222 130 196 255 246 206 188 154 148 198 214 206 188 174 203 240 99 95 88 82 76 76 86 89 93 83 184 195 184 132 219 190 156 173 197 215 211 204 205 204 203 198 197 204 194 184
338 334 321 315 313 312 305 286 276 280 319 328 330 325 330 57 83 59 49 45 4 285 261 324 298 330 69 103 1 347 40 48 33 58 59 90 8 35 120 157 106 129 352 36 212 244 269 247 173 152 177 196 198 199 189 164 158 119 91 85 68 58 52 45 18 49 77 322 228 189 187 125 109 213 188 185 202 207 200 195 198 198 193 191 195 202 196 182
338 330 314 306 302 289 275 290 287 309 320 322 326 331 3 64 61 82 79 332 12 314 323 292 298 40 83 121 142 347 61 15 29 94 90 77 45 32 50 77 76 78 20 356 295 284 304 290 200 212 196 168 151 165 195 165 149 96 90 108 83 41 23 51 1 15 97 270 260 178 171 111 125 241 212 218 269 202 191 192 190 189 185 187 189 183 192 188
337 323 303 294 279 248 240 273 293 300 308 319 338 8 73 52 25 96 284 332 344 260 238 234 275 83 95 104 118 206 162 79 39 119 131 115 119 166 161 155 174 72 0 272 272 332 303 237 230 248 208 155 139 100 37 173 158 97 108 116 90 46 6 66 349 324 169 265 299 153 149 118 257 235 202 238 260 249 212 196 185 184 182 182 178 170 179 180
333 317 297 283 266 256 262 277 280 284 291 309 19 47 80 75 31 229 268 323 254 232 204 185 97 108 113 87 46 230 162 174 227 117 109 94 111 197 236 198 163 133 172 212 234 349 285 271 265 231 244 174 148 137 136 172 158 134 141 128 106 120 92 102 195 284 241 269 334 133 154 243 279 207 264 259 249 251 229 197 180 180 180 172 163 161 159 153
331 316 301 290 281 280 282 270 258 255 250 84 74 64 66 69 270 270 275 259 255 283 6 72 84 66 81 126 233 219 130 285 210 100 74 62 83 179 265 265 166 129 126 166 196 172 186 262 239 188 216 188 164 169 166 156 155 165 162 138 139 156 144 162 188 190 206 223 37 98 171 241 234 178 301 300 74 358 266 176 157 165 168 146 143 144 130 127
333 321 315 309 304 308 294 239 222 197 159 77 65 68 71 64 260 278 265 255 272 330 353 30 84 65 24 313 309 352 132 310 33 74 58 84 125 174 229 256 216 134 119 159 240 182 160 244 249 240 210 162 170 183 147 134 152 199 162 116 151 187 153 135 163 156 143 124 85 98 207 246 192 294 305 95 89 52 58 120 134 153 157 136 145 150 136 160
338 331 320 308 306 316 315 208 183 166 126 76 63 58 96 234 236 195 221 255 309 356 14 16 58 69 3 326 337 356 64 62 58 60 34 65 119 213 227 253 235 160 148 171 219 184 111 269 273 305 286 184 181 175 157 156 158 148 144 156 193 166 128 117 66 51 98 107 100 158 249 276 27 322 279 115 86 69 89 126 145 159 163 148 153 158 149 161
345 346 320 305 319 327 129 152 155 141 67 82 80 61 207 234 199 183 242 296 320 73 88 57 39 76 31 338 319 326 22 37 40 64 48 29 1 309 290 282 253 180 179 189 219 208 153 277 286 257 231 240 188 138 142 173 145 128 178 192 157 59 82 107 98 30 50 105 215 318 297 268 97 309 232 119 89 71 73 120 148 157 166 162 156 158 158 149
341 344 333 338 342 352 146 132 130 107 62 74 48 319 208 261 211 197 267 319 320 61 81 102 120 148 162 129 286 302 17 46 14 66 95 55 347 197 1 294 261 245 234 187 200 239 143 268 291 243 202 272 47 110 112 330 94 130 172 163 126 126 183 108 118 140 102 115 231 313 331 280 173 205 218 136 114 95 71 93 148 158 170 172 160 158 159 142
342 3 8 346 347 155 150 134 113 71 58 66 15 301 206 275 268 246 270 353 111 72 72 127 135 102 127 134 187 297 46 110 135 98 107 95 49 161 95 301 268 293 305 151 166 231 104 129 288 277 215 357 20 111 158 193 15 46 127 140 103 126 165 151 135 155 134 139 197 116 339 271 204 225 209 147 130 119 109 117 150 166 179 176 166 165 165 153
4 73 328 341 14 146 148 117 74 55 53 85 194 230 264 271 281 298 314 84 111 83 83 162 119 96 106 127 153 110 55 84 118 105 108 135 151 288 288 246 279 303 4 86 126 179 66 115 246 290 326 127 168 187 179 169 137 103 134 158 134 72 126 128 80 64 122 136 153 125 274 263 240 267 209 141 126 127 136 137 120 153 184 175 171 169 165 166
48 75 315 352 101 150 138 54 48 62 59 324 227 239 282 297 298 317 327 31 80 114 132 131 121 109 121 95 45 74 58 49 65 87 101 143 122 305 281 205 236 289 14 43 40 173 132 135 204 295 349 180 229 250 194 172 156 151 161 175 173 134 119 117 95 317 94 120 150 153 200 265 275 285 188 131 125 128 134 126 98 94 123 144 163 166 161 169
73 63 309 89 143 160 72 47 334 68 140 270 289 243 282 11 352 322 331 13 47 56 66 89 104 95 114 124 18 59 86 56 34 68 121 162 146 178 275 313 266 201 113 58 293 230 168 112 135 270 233 211 257 285 215 166 140 134 145 160 158 138 123 132 165 215 105 92 116 116 111 283 279 289 121 124 126 121 118 111 96 86 73 65 79 125 134 136
95 243 273 149 176 196 50 44 307 4 241 265 297 260 270 1 354 342 355 11 25 45 41 40 78 76 85 162 125 84 91 77 56 78 213 202 149 206 272 329 327 119 99 27 286 243 113 84 103 271 304 303 299 318 7 80 101 102 61 80 140 145 129 139 157 153 129 140 129 82 64 243 232 294 96 115 117 106 99 97 95 87 70 61 58 73 105 126
139 235 281 169 203 210 76 120 275 322 288 306 354 335 320 13 38 21 11 359 355 81 74 16 339 82 81 105 90 88 100 108 102 69 206 161 124 234 326 359 0 64 73 266 207 168 49 67 94 105 21 348 341 9 358 357 66 111 67 8 122 114 103 107 105 82 102 184 159 127 195 211 144 129 111 110 109 99 95 93 90 85 81 78 65 60 81 120
60 218 277 335 28 132 138 184 164 205 291 348 8 333 338 2 30 49 48 0 357 99 112 320 285 92 65 56 60 32 33 91 116 36 39 115 292 308 12 6 12 43 349 275 235 81 95 77 81 125 137 169 170 183 220 216 192 75 81 53 111 117 117 122 109 88 124 190 158 143 177 156 134 141 133 124 119 108 105 100 91 88 88 86 69 51 51 50
60 120 296 334 9 68 134 194 114 135 282 16 4 325 15 9 322 353 79 59 14 33 89 31 306 70 50 45 51 20 6 28 73 67 50 346 293 284 355 356 8 12 348 341 23 58 102 83 96 140 149 184 194 223 240 171 131 117 96 87 106 123 117 109 108 142 161 152 170 222 168 143 151 158 146 139 133 123 121 112 102 102 99 87 72 56 50 46
74 99 31 341 343 16 357 353 43 34 234 134 81 320 7 7 327 348 26 56 6 6 60 40 16 55 60 55 60 23 359 1 26 43 1 294 284 288 326 348 3 356 346 348 20 57 99 41 357 124 119 177 216 249 269 115 114 127 118 115 132 111 106 108 129 182 151 129 211 241 166 151 163 163 150 147 143 133 131 122 113 116 116 105 91 72 60 52
63 131 147 135 208 320 344 329 7 27 223 127 91 13 14 37 41 17 347 345 359 13 60 42 8 21 84 103 99 28 2 8 12 3 318 311 336 340 348 347 345 357 360 357 9 64 109 32 327 50 58 36 5 323 326 97 98 75 75 86 71 10 108 119 130 163 142 141 203 189 165 160 159 152 150 153 151 143 134 123 118 119 116 108 96 80 71 59
45 65 290 64 151 210 229 291 340 62 68 77 66 44 57 63 56 12 324 4 6 1 53 81 349 335 60 112 98 62 28 46 13 335 317 341 4 20 17 342 318 353 23 27 16 69 110 10 314 305 56 34 17 360 6 82 92 62 46 52 51 46 84 105 105 100 105 121 154 150 148 146 141 147 152 149 144 136 123 117 116 115 109 102 94 86 84 75
67 94 299 21 16 283 279 334 26 86 47 34 59 38 57 71 54 355 8 45 18 337 22 93 49 348 36 88 87 81 164 152 154 302 276 65 22 39 93 287 282 340 14 31 10 31 80 352 313 12 60 17 9 9 355 27 93 80 47 34 43 53 65 81 104 101 84 88 120 130 132 128 134 141 138 134 137 129 120 119 115 109 103 101 97 91 91 88
42 168 119 89 19 331 339 355 51 94 34 21 104 130 45 83 93 74 47 52 103 34 67 143 132 21 39 69 86 92 251 185 188 259 243 177 108 99 149 182 201 334 3 21 12 13 60 32 334 34 61 343 349 8 340 330 76 74 39 18 21 34 77 90 115 135 125 124 123 128 142 155 150 135 128 134 138 129 125 124 118 112 105 101 101 96 92 89
6 32 59 97 60 347 14 355 28 82 70 300 182 143 90 232 242 92 81 17 30 58 136 167 144 57 46 52 71 311 276 224 220 273 240 166 112 86 94 90 103 83 22 21 40 37 101 110 37 60 80 320 329 355 338 338 56 54 351 341 349 8 136 116 9 48 126 134 136 155 167 147 138 134 133 139 139 132 131 128 122 121 112 102 102 101 97 93
Height
793 792 792 791 790 788 788 787 786 785 784 783 782 781 780 780 779 778 777 777 776 775 775 774 773 773 772 772 771 770 770 769 767 768 764 754 752 756 758 760 761 763 765 766 768 770 773 777 778 779 782 784 786 787 787 787 786 793 802 810 811 807 804 797 794 795 794 797 797 797 795 797 802 800 796 796 801 804 805 805 804 803 802 805 807 810 814 817
793 792 791 790 789 788 787 786 785 784 783 782 781 780 779 779 778 777 776 776 775 775 774 773 773 773 772 772 771 770 770 768 767 765 755 749 752 754 756 759 761 762 763 765 766 767 771 775 777 779 783 786 787 787 789 787 788 797 803 810 808 800 796 791 791 790 791 796 795 795 795 796 800 800 797 803 810 808 810 812 808 809 808 808 810 813 816 817
792 791 790 789 788 787 786 785 784 783 782 781 780 779 778 777 777 776 775 775 774 774 773 773 772 772 772 771 771 770 770 769 766 758 748 748 752 752 755 758 760 761 762 764 766 767 770 772 775 778 783 788 788 788 791 789 790 795 801 810 803 792 793 789 789 789 789 792 794 796 795 797 799 797 798 805 812 811 814 815 812 814 813 812 812 814 816 818
792 790 789 788 787 786 786 784 783 782 781 780 779 778 777 776 775 775 774 774 773 773 773 772 772 771 771 771 771 770 770 769 761 750 746 748 749 751 755 757 758 761 763 765 768 770 771 773 775 778 784 790 788 788 792 790 790 793 798 804 795 789 793 789 788 788 788 790 792 796 796 800 798 795 800 805 812 816 814 810 810 812 811 812 813 814 817 819
791 790 788 787 786 785 785 784 783 781 780 779 778 777 776 775 774 774 773 773 772 772 772 771 771 771 771 770 771 770 770 769 756 746 747 747 747 750 753 755 758 761 763 766 769 770 772 774 776 779 785 791 791 791 792 786 786 793 794 792 788 789 793 789 787 788 788 790 793 796 798 800 797 798 803 804 812 815 809 805 805 806 807 809 812 814 817 819
791 789 788 786 785 784 783 782 781 780 779 778 777 776 775 774 773 773 772 772 771 771 771 771 771 771 770 770 771 770 770 766 751 746 748 746 747 749 752 755 758 761 763 766 768 770 773 775 778 783 787 791 793 793 790 783 783 794 793 786 786 787 790 789 786 788 789 792 797 798 797 797 799 804 804 804 808 806 802 802 804 805 806 807 811 814 817 820
790 788 787 785 784 783 782 781 780 779 778 777 776 775 774 773 772 772 771 771 770 770 770 770 770 770 770 770 770 770 770 761 748 747 748 746 748 749 752 755 758 761 763 766 768 770 772 775 780 783 788 792 792 790 787 783 782 792 793 788 787 786 788 788 786 788 789 794 798 796 797 800 804 807 804 805 805 802 802 802 804 807 808 809 813 815 818 820
789 787 786 784 783 782 781 779 778 777 777 775 775 774 773 772 771 771 770 770 769 769 770 769 770 769 770 770 769 770 768 757 747 748 748 747 749 750 753 755 758 761 762 766 767 769 771 776 779 780 788 790 788 788 784 785 787 790 792 789 788 789 789 788 786 788 789 794 795 796 802 805 806 805 805 807 804 801 802 804 806 809 811 812 814 817 819 821
788 787 785 784 782 781 779 778 777 776 775 774 773 772 772 771 771 770 770 769 768 769 768 768 769 769 770 770 770 768 760 750 747 748 748 748 749 751 753 755 758 760 762 766 766 769 772 775 777 777 784 786 785 785 781 788 791 786 788 789 791 793 792 790 790 790 792 794 794 800 806 805 803 803 807 808 803 802 802 806 809 811 814 815 816 818 819 821
787 785 784 783 781 780 778 777 776 775 774 773 772 771 770 770 770 769 769 768 768 768 767 768 768 769 770 769 770 767 753 747 748 748 748 749 750 752 754 755 758 759 762 765 766 769 770 773 773 771 778 782 784 783 780 786 785 781 786 790 792 794 793 792 794 793 794 795 795 802 808 807 803 804 813 810 802 802 805 809 811 813 816 816 817 818 820 822
786 785 784 782 780 779 777 776 775 774 773 771 771 770 769 769 768 768 768 767 767 767 767 767 768 769 770 769 770 763 750 747 749 747 748 749 750 752 753 755 757 759 762 765 767 768 769 770 769 771 779 782 783 782 779 778 778 781 786 793 796 795 795 795 797 797 796 800 798 800 807 809 807 809 813 810 803 803 807 812 813 815 817 817 818 819 820 822
786 784 782 781 779 777 776 775 773 772 771 770 769 768 768 768 767 767 766 766 766 766 766 767 768 768 769 770 766 757 748 748 749 748 749 750 751 752 753 755 757 758 761 764 767 768 769 769 768 776 781 780 784 786 781 775 778 783 785 797 803 799 802 801 800 801 799 804 799 797 813 818 813 813 810 806 805 805 809 814 815 817 818 818 819 820 821 822
785 783 781 780 778 777 775 774 772 771 770 769 768 767 767 766 766 766 766 766 766 766 766 767 768 768 770 767 757 749 748 749 749 750 750 751 753 754 755 757 758 760 761 763 766 767 769 769 770 776 776 780 787 783 778 775 779 786 788 798 807 808 810 805 803 804 802 805 798 799 823 827 816 813 809 805 806 808 813 816 817 819 819 820 820 821 822 822
784 782 780 779 777 776 774 773 771 770 769 768 767 766 766 765 765 765 765 765 765 766 766 767 768 768 770 761 749 748 749 748 749 750 751 752 753 755 757 758 760 762 763 764 766 767 769 769 771 775 775 779 781 777 780 784 785 791 795 801 809 816 817 807 804 807 807 806 798 803 824 827 816 813 809 807 808 810 816 818 818 820 820 821 821 822 823 822
783 781 780 778 776 775 773 772 770 769 768 767 765 765 764 764 765 764 765 765 765 766 766 768 768 769 770 760 748 747 748 747 749 749 750 752 753 755 757 759 761 763 765 766 767 768 769 770 774 779 779 776 777 783 791 793 791 794 803 813 814 816 818 811 805 806 808 807 802 808 823 824 817 813 809 808 809 811 816 819 818 820 821 822 822 822 823 823
782 781 779 777 775 774 772 770 769 768 767 765 765 764 764 764 765 765 765 765 766 767 767 769 768 769 769 758 748 747 748 747 747 748 750 751 752 755 757 759 762 764 766 766 767 768 769 772 775 778 779 779 783 790 797 802 802 799 804 816 817 815 818 815 809 805 805 808 808 812 821 824 817 812 810 809 811 813 816 819 819 821 821 822 823 823 824 824
781 779 778 776 774 773 771 769 768 767 766 765 764 764 764 765 764 765 766 766 767 767 768 769 769 770 764 751 748 749 747 747 747 747 749 750 753 754 756 760 762 765 767 767 768 768 770 774 777 779 780 784 786 790 805 817 815 807 806 812 813 813 816 817 815 808 804 809 813 812 817 820 814 811 811 810 812 815 818 819 820 820 822 822 823 824 824 824
780 778 777 775 773 772 770 768 767 766 765 764 763 764 765 765 765 766 767 767 768 769 769 769 769 770 762 750 750 751 747 747 747 746 748 751 753 754 755 759 761 765 769 770 771 771 775 777 780 785 785 787 789 793 808 815 810 809 810 811 813 813 814 816 814 808 805 810 814 815 818 817 813 811 812 812 813 816 817 818 819 820 822 823 823 824 824 824
779 778 776 774 772 771 769 767 766 766 765 764 764 764 765 765 766 767 768 768 768 767 766 766 765 765 761 753 750 748 746 746 747 747 748 750 753 754 755 758 761 765 771 776 777 775 777 781 786 792 792 790 790 791 796 797 796 801 803 806 812 816 815 812 808 804 805 812 816 817 820 818 816 815 814 814 814 816 817 817 819 820 821 822 823 824 824 824
778 776 774 773 771 770 768 766 766 765 765 764 764 764 765 766 767 767 768 767 764 759 757 759 758 758 757 752 748 747 745 745 746 746 747 749 751 755 757 759 762 767 772 777 780 776 777 787 792 793 791 786 786 786 786 787 788 792 798 804 808 813 815 809 806 804 802 812 818 814 817 819 818 817 816 815 816 817 818 818 820 821 821 822 823 823 824 823
777 775 773 772 770 769 767 766 765 764 764 764 764 764 765 765 768 768 764 761 756 753 754 754 754 755 752 749 748 748 748 748 746 746 748 748 750 757 761 761 767 773 775 776 778 776 779 792 793 786 784 781 782 784 784 786 786 789 797 804 808 812 814 808 805 804 801 811 819 814 818 821 818 818 817 816 818 819 819 820 820 821 821 821 821 823 823 822
776 774 772 771 769 768 766 765 764 763 763 764 763 764 762 762 763 762 761 761 754 750 753 753 754 754 748 747 747 747 753 754 750 748 748 749 752 759 762 764 771 776 776 776 780 784 788 792 787 782 782 781 783 784 784 787 788 791 797 804 811 811 811 810 806 805 805 813 819 817 821 823 818 819 820 819 819 819 818 819 819 819 820 821 821 822 822 822
775 773 771 769 768 766 765 764 763 762 762 762 763 762 761 760 759 759 761 764 758 750 751 753 753 752 748 746 745 747 753 755 754 751 746 750 755 758 761 766 772 776 778 780 784 792 795 788 780 780 782 782 786 787 786 789 790 793 798 805 812 809 808 814 814 813 812 814 818 817 822 825 821 823 824 821 820 818 817 818 817 817 818 819 818 819 820 822
774 771 770 768 766 765 764 763 762 762 761 761 761 760 759 758 758 758 759 763 763 753 748 749 748 749 747 744 742 747 752 751 753 751 745 750 756 757 760 766 772 777 780 780 783 789 789 782 778 780 782 783 788 789 787 791 794 794 794 798 806 806 803 808 814 817 816 817 816 817 829 831 824 826 827 822 821 820 819 819 818 817 815 816 817 817 819 819
772 770 768 766 765 764 763 762 761 761 760 759 759 758 758 757 756 756 758 767 768 755 747 747 747 746 742 741 743 744 748 750 748 747 744 747 753 758 762 764 770 779 782 781 784 787 784 778 776 780 783 784 788 790 788 790 794 795 791 788 794 799 800 806 812 816 823 828 818 816 835 837 825 825 827 824 824 823 821 821 820 818 816 816 818 818 818 818
771 769 767 765 763 762 762 761 760 760 759 758 757 757 757 756 755 754 761 775 773 757 750 750 749 746 740 743 744 742 752 754 744 742 743 745 747 753 763 766 768 776 778 777 781 783 780 775 775 779 783 785 788 790 787 786 794 798 787 780 786 793 800 807 810 816 826 829 815 811 830 837 829 825 823 823 826 825 823 822 819 818 817 816 817 817 817 818
769 767 765 764 762 761 761 760 760 760 759 758 757 757 756 754 755 753 764 784 779 758 753 752 748 745 741 743 741 746 762 757 744 743 742 745 746 748 763 771 770 773 771 775 786 783 776 776 777 779 783 787 790 790 786 783 792 795 782 778 787 793 799 804 807 814 819 819 818 815 820 832 834 827 820 822 828 827 825 823 820 818 817 816 815 815 815 815
768 765 764 763 761 761 760 760 760 759 758 758 756 756 755 754 755 755 772 793 780 755 752 751 743 740 740 741 741 748 755 750 752 753 741 743 748 750 764 770 769 772 767 776 791 783 773 776 778 779 784 789 788 784 781 780 786 787 779 780 786 790 797 800 805 813 814 819 831 825 818 831 838 828 820 823 829 830 826 823 820 818 816 815 815 814 813 813
766 764 762 761 761 760 759 760 759 757 757 756 755 756 754 753 755 761 781 792 773 753 751 747 743 743 743 744 747 748 748 748 755 753 743 746 749 750 763 765 766 771 769 774 784 779 772 771 771 775 782 784 780 777 774 777 783 781 778 783 788 794 801 806 811 815 816 825 834 827 820 830 838 832 825 827 828 826 821 819 817 816 815 814 814 814 812 812
764 762 761 760 759 759 759 758 756 756 756 755 756 755 752 755 761 776 793 787 767 757 752 747 748 748 748 752 754 752 750 752 752 749 749 752 750 750 758 759 761 769 772 774 777 774 769 766 766 770 774 773 772 772 771 774 778 777 781 790 798 805 808 814 819 817 825 833 827 820 819 824 833 832 826 823 819 814 815 817 817 815 815 814 813 813 812 811
762 760 759 758 758 758 758 757 755 755 755 755 755 753 754 762 772 789 793 775 764 762 753 751 753 750 752 757 759 756 754 754 752 753 757 758 758 759 762 765 767 773 780 779 777 775 771 770 769 764 762 764 768 773 773 772 772 776 786 794 806 819 817 822 828 825 836 839 819 813 818 822 831 830 822 816 809 807 810 814 815 814 815 813 812 812 811 811
760 758 757 756 756 756 756 755 754 754 754 754 754 754 761 774 782 788 783 767 767 766 756 755 755 753 755 757 759 758 757 758 755 756 761 763 766 766 767 772 773 782 792 788 782 779 772 769 767 760 758 760 768 777 779 778 776 781 791 798 816 836 835 839 845 838 840 833 816 813 818 824 831 825 818 813 808 807 806 806 809 811 812 812 812 811 810 810
758 756 755 754 754 754 753 753 753 754 753 752 755 757 767 782 786 783 777 770 768 761 754 755 754 754 757 759 761 758 758 760 758 758 761 764 769 770 768 768 768 777 789 789 786 784 777 770 764 763 761 756 762 776 785 787 785 788 794 799 816 838 848 856 856 847 840 829 817 814 817 827 831 821 814 812 808 805 802 801 804 806 809 810 811 810 810 810
756 754 753 753 752 752 751 752 752 752 752 752 757 763 773 787 785 776 773 770 762 755 754 756 755 757 758 760 762 758 759 763 759 759 763 765 772 775 771 769 767 770 777 784 786 785 788 783 767 762 762 756 758 766 771 777 784 786 783 787 802 815 829 844 845 840 838 832 824 821 823 831 831 821 813 808 805 804 800 799 801 805 808 809 810 810 810 811
754 753 752 751 751 750 750 750 751 751 752 753 760 769 780 788 784 776 772 764 758 756 756 755 755 761 764 762 760 757 759 764 762 762 766 770 774 775 773 770 768 768 774 785 786 782 791 785 761 754 756 753 756 757 756 769 786 786 777 784 796 792 797 816 823 821 826 834 835 830 831 830 822 815 809 805 805 803 801 801 803 808 809 808 811 811 811 811
753 752 751 750 750 750 749 750 750 751 752 755 765 775 781 779 775 773 766 757 756 757 757 759 760 766 770 767 764 760 757 760 763 766 770 774 775 774 774 769 765 767 770 779 782 781 788 780 757 754 755 749 752 753 752 763 779 785 785 789 786 774 779 803 818 816 817 832 839 834 834 830 821 817 810 806 808 806 804 804 806 809 809 809 812 811 811 812
752 751 751 750 750 750 750 750 751 752 753 759 770 777 776 769 764 763 758 753 756 755 758 768 770 771 775 773 770 765 759 761 765 769 775 779 777 773 773 768 764 764 763 769 774 774 782 779 759 754 757 750 746 749 751 752 760 779 789 781 774 776 780 793 817 828 827 838 843 836 837 835 830 827 816 811 813 811 808 806 806 809 810 810 811 811 811 811
751 751 751 750 750 750 750 750 751 752 755 763 773 775 772 766 759 757 755 753 755 754 759 770 772 772 776 776 774 768 764 766 768 771 777 780 777 772 770 768 763 761 761 764 769 768 775 781 766 752 756 752 744 751 761 756 752 761 768 764 770 789 795 795 812 825 830 845 848 839 838 835 829 827 819 815 817 814 811 808 807 809 809 809 811 810 811 810
752 752 753 751 750 750 751 751 752 754 760 769 776 774 769 764 757 753 753 753 754 756 761 768 769 771 773 773 773 769 766 769 770 772 777 780 778 770 767 768 763 761 761 762 766 767 770 782 775 756 752 754 749 755 768 767 758 755 758 761 768 779 787 793 803 807 817 840 850 846 844 834 824 821 818 815 816 814 813 812 809 809 808 808 809 810 810 810
753 756 757 752 750 752 752 751 753 759 765 772 775 771 767 763 755 750 750 751 754 755 760 765 766 768 771 770 772 769 767 769 771 773 776 778 777 770 765 767 765 762 762 760 764 766 770 782 781 763 754 759 760 759 761 764 763 764 768 772 774 777 780 788 799 802 809 830 846 847 842 832 822 818 815 813 813 812 812 812 812 810 809 808 809 809 810 810
754 760 759 752 752 753 753 755 760 766 770 772 772 769 764 760 755 752 749 749 752 752 755 761 763 766 768 769 771 769 767 770 772 774 775 775 776 774 767 765 765 763 763 763 764 766 771 779 780 770 763 764 762 756 754 754 755 760 765 767 773 778 781 792 808 811 807 816 830 830 826 826 822 814 811 812 811 810 810 812 813 812 810 810 809 809 810 810
757 763 761 754 754 754 755 762 768 771 770 767 766 764 760 758 756 755 752 749 752 753 753 757 762 765 767 767 769 769 768 771 774 774 774 773 774 772 766 762 763 763 763 766 766 764 765 774 779 774 768 765 760 755 756 755 752 754 758 762 768 770 771 784 801 811 811 813 819 820 820 824 820 811 809 811 810 810 811 812 814 814 813 812 811 811 810 810
760 763 758 755 756 755 759 768 770 769 767 764 762 761 758 758 757 756 755 754 755 755 756 759 761 763 765 765 767 768 769 773 776 774 773 772 770 767 764 761 761 762 763 766 767 763 764 775 780 774 767 761 755 753 754 753 754 757 760 763 766 765 766 772 780 793 807 813 815 818 823 825 818 810 810 810 810 811 812 813 814 815 815 814 813 812 811 810
763 762 758 756 755 756 763 771 771 769 768 764 763 761 758 758 758 758 759 759 758 757 759 762 761 762 764 764 765 768 771 774 776 773 772 773 769 764 763 761 760 761 763 764 764 762 768 780 782 779 781 779 771 767 763 757 757 762 766 767 766 765 768 774 780 787 800 812 811 806 816 825 818 811 811 812 812 814 814 814 814 815 816 816 814 814 812 811
764 763 761 757 754 757 764 768 768 770 769 766 766 765 762 760 759 759 761 761 760 759 761 762 760 760 763 764 766 770 770 771 774 773 772 772 767 762 762 761 760 762 761 760 759 759 769 782 782 782 790 794 790 784 775 767 764 766 769 769 768 769 766 772 785 790 797 811 809 799 811 824 819 813 815 814 814 816 816 815 815 816 817 817 816 815 814 813
764 766 765 761 758 760 764 765 765 767 768 768 769 768 767 766 762 759 759 761 761 759 760 762 761 761 764 766 770 774 772 771 771 772 774 772 767 764 763 761 760 761 760 758 758 759 770 782 784 783 784 786 785 779 772 769 767 767 770 770 771 772 766 768 782 786 791 808 813 805 811 820 819 818 818 816 816 817 817 817 817 818 818 817 817 816 816 816
766 770 771 769 766 765 765 766 767 767 766 768 770 770 771 771 767 761 759 761 762 761 761 763 764 765 767 769 774 777 776 774 773 774 777 774 768 766 765 761 761 760 758 758 758 760 770 782 784 782 781 782 783 779 773 770 768 768 771 772 773 773 768 768 777 782 787 801 809 809 811 815 817 817 817 817 818 817 817 817 818 819 819 818 818 818 818 818
768 771 773 772 772 772 769 768 769 769 767 767 769 771 773 774 772 770 766 763 763 763 764 767 769 771 770 769 774 780 780 778 778 779 780 777 771 768 766 763 762 761 760 760 759 762 773 783 783 778 775 776 779 777 773 772 774 777 777 774 775 775 770 771 780 786 784 783 790 801 809 811 812 813 814 816 817 816 817 816 816 818 819 819 819 819 820 821
769 771 772 772 773 774 773 771 770 770 770 769 769 772 775 776 775 775 772 768 767 768 769 772 775 776 773 768 772 781 784 783 784 783 779 778 776 774 773 771 766 762 762 762 763 768 774 780 784 780 772 771 775 777 775 774 777 783 785 781 781 782 778 779 788 791 786 783 787 798 807 809 808 808 812 814 814 814 814 814 816 819 820 820 821 822 822 823
771 773 773 773 773 773 772 772 769 768 769 771 773 774 776 777 777 775 774 775 776 774 772 776 779 777 773 768 771 779 782 782 784 783 779 779 779 778 779 778 772 767 765 766 769 770 770 778 783 777 771 774 776 775 776 777 776 780 785 785 784 787 788 789 792 792 794 798 799 800 808 813 807 805 810 813 813 814 815 817 819 820 821 822 823 824 824 824
773 773 774 774 774 773 773 773 772 770 770 773 775 775 776 778 778 776 775 776 778 777 775 778 780 777 774 772 773 776 777 778 779 778 776 777 777 776 776 776 774 771 770 772 775 773 773 780 783 776 778 784 781 778 781 778 772 775 783 786 787 790 793 793 791 790 794 801 806 808 811 811 806 806 812 814 814 815 818 820 821 822 823 824 825 826 827 826
773 773 774 775 775 775 775 775 774 774 774 775 776 775 775 776 775 776 778 777 776 776 776 777 776 776 778 779 778 775 774 775 775 774 774 775 775 774 774 774 774 773 773 775 779 783 784 784 783 783 789 791 786 783 783 779 778 786 790 790 789 790 791 792 791 789 789 794 802 806 803 800 802 807 813 816 817 818 820 820 821 823 824 825 827 828 828 828